Change the Weather History Date:

Saturday, March 3, 2012

  Actual Average Record
Temperature  
Mean Temperature 32 °F -  
Max Temperature 37 °F 42 °F 69 °F (1974)
Min Temperature 28 °F 26 °F 0 °F (2014)
Degree Days  
Heating Degree Days 32    
Moisture  
Dew Point 25 °F    
Average Humidity 74    
Maximum Humidity 86    
Minimum Humidity 61    
Precipitation  
Precipitation 0.00 in - - ()
Sea Level Pressure  
Sea Level Pressure 29.69 in    
Wind  
Wind Speed 21 mph (WSW)    
Max Wind Speed 26 mph    
Max Gust Speed 38 mph    
Visibility 8 miles    
Events Snow    
Averages and records for this station are not official NWS values.
T = Trace of Precipitation, MM = Missing Value Source: NWS Daily Summary

Daily Weather History Graph

Daily Weather History Graph

Search for Another Location

Airport or City:

Trip Planner

Search our weather history database for the weather conditions in past years. The results will help you decide how hot, cold, wet, or windy it might be!

Date:

Astronomy

Mar. 03, 2012 Rise Set
Actual Time 7:04 AM EST 6:28 PM EST
Civil Twilight 6:37 AM EST 6:56 PM EST
Nautical Twilight 6:05 AM EST 7:27 PM EST
Astronomical Twilight 5:33 AM EST 7:59 PM EST
Moon 1:35 PM EST (3/3) 3:43 AM EST (3/3)
Length of Visible Light 12h 18m
Length of Day
11h 23m
Waxing Gibbous, 75% of the Moon is Illuminated
Mar 3
Waxing Gibbous
Mar 8
Full
Mar 14
Last Quarter
Mar 22
New
Mar 30
First Quarter

Hourly Weather History & Observations

Time (EST) Temp. Windchill Dew Point Humidity Pressure Visibility Wind Dir Wind Speed Gust Speed Precip Events Conditions
12:53 AM 37.0 °F 25.4 °F 30.9 °F 79% 29.48 in 10.0 mi WSW 25.3 mph 35.7 mph N/A   Overcast
1:53 AM 37.0 °F 25.1 °F 28.9 °F 73% 29.51 in 10.0 mi West 26.5 mph 33.4 mph N/A   Overcast
2:53 AM 36.0 °F 25.6 °F 28.9 °F 76% 29.54 in 10.0 mi WSW 18.4 mph 28.8 mph N/A   Overcast
3:53 AM 35.1 °F 23.8 °F 28.9 °F 78% 29.56 in 10.0 mi WSW 20.7 mph 32.2 mph N/A   Overcast
4:53 AM 35.1 °F 25.2 °F 28.0 °F 76% 29.57 in 10.0 mi SW 16.1 mph 23.0 mph N/A   Overcast
5:28 AM 33.8 °F 22.5 °F 26.6 °F 75% 29.58 in 10.0 mi SW 19.6 mph 27.6 mph N/A   Overcast
5:53 AM 34.0 °F 23.0 °F 26.1 °F 73% 29.60 in 10.0 mi WSW 18.4 mph 29.9 mph N/A   Overcast
6:19 AM 33.8 °F 22.5 °F 26.6 °F 75% 29.60 in 10.0 mi WSW 19.6 mph 29.9 mph N/A   Overcast
6:53 AM 34.0 °F 22.4 °F 26.1 °F 73% 29.61 in 10.0 mi WSW 20.7 mph 33.4 mph N/A   Overcast
7:05 AM 33.8 °F 21.3 °F 24.8 °F 70% 29.62 in 10.0 mi WSW 24.2 mph 32.2 mph N/A   Overcast
7:34 AM 33.8 °F 23.2 °F 24.8 °F 70% 29.63 in 10.0 mi WSW 17.3 mph 27.6 mph N/A   Overcast
7:53 AM 33.1 °F 21.2 °F 25.0 °F 72% 29.63 in 10.0 mi WSW 20.7 mph 32.2 mph N/A   Overcast
8:53 AM 33.1 °F 20.1 °F 24.1 °F 70% 29.66 in 10.0 mi WSW 25.3 mph 33.4 mph N/A   Overcast
9:53 AM 33.1 °F 20.9 °F 24.1 °F 70% 29.68 in 10.0 mi WSW 21.9 mph 29.9 mph N/A   Overcast
10:53 AM 33.1 °F 21.2 °F 24.1 °F 70% 29.70 in 10.0 mi WSW 20.7 mph 34.5 mph N/A   Overcast
11:53 AM 34.0 °F 22.4 °F 23.0 °F 64% 29.72 in 10.0 mi WSW 20.7 mph 34.5 mph N/A   Overcast
12:53 PM 34.0 °F 21.3 °F 24.1 °F 67% 29.72 in 10.0 mi West 25.3 mph 38.0 mph N/A   Overcast
1:53 PM 34.0 °F 21.3 °F 25.0 °F 70% 29.71 in 10.0 mi WSW 25.3 mph 33.4 mph N/A   Overcast
2:45 PM 32.0 °F 20.1 °F 26.6 °F 80% 29.70 in 6.0 mi West 19.6 mph 31.1 mph 0.00 in Snow Light Snow
2:53 PM 33.1 °F 20.9 °F 26.1 °F 75% 29.71 in 9.0 mi West 21.9 mph 28.8 mph 0.00 in   Overcast
3:01 PM 33.8 °F 21.9 °F 26.6 °F 75% 29.70 in 9.0 mi West 21.9 mph 31.1 mph N/A   Overcast
3:48 PM 33.8 °F 21.3 °F 23.0 °F 65% 29.70 in 10.0 mi West 24.2 mph 33.4 mph N/A   Overcast
3:53 PM 35.1 °F 23.3 °F 23.0 °F 61% 29.71 in 10.0 mi West 23.0 mph 32.2 mph N/A   Overcast
4:53 PM 34.0 °F 22.1 °F 24.1 °F 67% 29.73 in 10.0 mi WSW 21.9 mph 35.7 mph N/A   Overcast
5:53 PM 33.1 °F 22.2 °F 24.1 °F 70% 29.75 in 10.0 mi WSW 17.3 mph 23.0 mph N/A   Overcast
6:53 PM 33.1 °F 23.0 °F 24.1 °F 70% 29.78 in 10.0 mi WSW 15.0 mph 26.5 mph N/A   Overcast
7:53 PM 32.0 °F 22.1 °F 25.0 °F 75% 29.78 in 7.0 mi WSW 13.8 mph 23.0 mph 0.00 in Snow Light Snow
8:09 PM 32.0 °F 20.8 °F 26.6 °F 80% 29.77 in 8.0 mi WSW 17.3 mph 27.6 mph 0.00 in Snow Light Snow
8:53 PM 30.9 °F 22.8 °F 27.0 °F 85% 29.79 in 10.0 mi West 9.2 mph - 0.00 in   Overcast
9:49 PM 30.2 °F 17.1 °F 24.8 °F 80% 29.78 in 2.5 mi WNW 21.9 mph 31.1 mph 0.00 in Snow Light Snow
9:53 PM 28.9 °F 15.1 °F 25.0 °F 85% 29.80 in 1.0 mi West 23.0 mph 32.2 mph 0.00 in Snow Light Snow
10:00 PM 28.4 °F 15.8 °F 24.8 °F 86% 29.79 in 0.8 mi West 18.4 mph 32.2 mph 0.00 in Snow Light Snow
10:04 PM 28.4 °F 15.4 °F 24.8 °F 86% 29.79 in 1.0 mi West 19.6 mph 27.6 mph 0.00 in Snow Light Snow
10:10 PM 28.4 °F 15.1 °F 24.8 °F 86% 29.78 in 2.0 mi West 20.7 mph 29.9 mph 0.00 in Snow Light Snow
10:18 PM 28.4 °F 16.6 °F 21.2 °F 74% 29.78 in 4.0 mi West 16.1 mph 31.1 mph 0.00 in Snow Light Snow
10:53 PM 30.0 °F 19.1 °F 23.0 °F 75% 29.80 in 10.0 mi West 15.0 mph - 0.00 in   Overcast
11:53 PM 30.0 °F 20.0 °F 23.0 °F 75% 29.80 in 10.0 mi West 12.7 mph - N/A   Overcast